QPF
0.01 0.02 0.02 0.02 0.03 0.03 0.03 0.03 0.03 0.02 0.02 0.02 0.02 0.01 0.01 0.01 0.01 0.02 0.01 0.02 0.02 0.02 0.03 0.03 0.01 0.01 0.00 0.00 0.01 0.01 0.01 0.01 0.01 0.01 0.02 0.03 0.03 0.03 0.02 0.02 0.02 0.02 0.03 0.03
0.02 0.02 0.02 0.02 0.02 0.02 0.02 0.02 0.02 0.02 0.02 0.01 0.01 0.01 0.01 0.01 0.01 0.02 0.02 0.02 0.02 0.02 0.03 0.02 0.01 0.01 0.01 0.01 0.01 0.01 0.01 0.01 0.01 0.01 0.01 0.03 0.03 0.02 0.01 0.01 0.01 0.02 0.02 0.02
0.03 0.01 0.02 0.02 0.02 0.01 0.01 0.02 0.02 0.02 0.02 0.01 0.01 0.01 0.01 0.01 0.02 0.02 0.02 0.03 0.03 0.03 0.03 0.02 0.02 0.01 0.01 0.01 0.01 0.01 0.01 0.01 0.01 0.01 0.01 0.02 0.03 0.02 0.01 0.01 0.01 0.01 0.01 0.02
0.03 0.02 0.03 0.02 0.02 0.01 0.01 0.01 0.01 0.01 0.02 0.02 0.02 0.02 0.01 0.02 0.02 0.02 0.02 0.03 0.03 0.03 0.03 0.03 0.02 0.01 0.01 0.01 0.02 0.02 0.02 0.01 0.01 0.01 0.01 0.01 0.02 0.02 0.01 0.00 0.01 0.01 0.01 0.02
0.02 0.02 0.01 0.01 0.01 0.01 0.01 0.01 0.01 0.01 0.01 0.01 0.02 0.01 0.01 0.01 0.01 0.02 0.02 0.03 0.03 0.03 0.03 0.03 0.02 0.01 0.01 0.01 0.02 0.02 0.02 0.02 0.01 0.01 0.01 0.01 0.01 0.01 0.01 0.01 0.01 0.00 0.00 0.01
0.01 0.01 0.01 0.00 0.00 0.00 0.01 0.01 0.00 0.01 0.01 0.01 0.01 0.02 0.02 0.01 0.02 0.02 0.02 0.02 0.02 0.02 0.02 0.03 0.02 0.01 0.01 0.01 0.02 0.02 0.02 0.02 0.02 0.02 0.02 0.01 0.01 0.01 0.01 0.01 0.01 0.00 0.00 0.00
0.01 0.01 0.00 0.00 0.00 0.00 0.01 0.01 0.01 0.01 0.01 0.01 0.01 0.02 0.02 0.02 0.02 0.02 0.02 0.02 0.02 0.02 0.02 0.03 0.03 0.02 0.02 0.02 0.02 0.01 0.01 0.01 0.02 0.03 0.03 0.02 0.01 0.01 0.01 0.01 0.01 0.01 0.01 0.01
0.01 0.01 0.00 0.00 0.00 0.01 0.01 0.01 0.01 0.01 0.01 0.01 0.01 0.01 0.02 0.02 0.02 0.02 0.02 0.02 0.02 0.02 0.02 0.02 0.03 0.02 0.02 0.02 0.01 0.01 0.01 0.01 0.02 0.02 0.02 0.01 0.01 0.01 0.01 0.02 0.02 0.02 0.01 0.01
0.01 0.01 0.01 0.01 0.01 0.01 0.01 0.01 0.01 0.01 0.01 0.01 0.01 0.02 0.02 0.02 0.02 0.02 0.02 0.01 0.01 0.02 0.02 0.02 0.03 0.03 0.02 0.02 0.01 0.01 0.01 0.01 0.01 0.01 0.01 0.01 0.01 0.01 0.01 0.02 0.02 0.03 0.02 0.02
0.01 0.01 0.01 0.01 0.01 0.01 0.00 0.00 0.01 0.01 0.01 0.01 0.01 0.02 0.02 0.02 0.02 0.02 0.01 0.01 0.01 0.02 0.02 0.03 0.03 0.03 0.03 0.02 0.02 0.01 0.02 0.02 0.02 0.02 0.01 0.01 0.01 0.01 0.01 0.01 0.01 0.01 0.01 0.01
0.01 0.01 0.01 0.01 0.01 0.01 0.01 0.00 0.00 0.00 0.01 0.01 0.01 0.02 0.02 0.02 0.02 0.02 0.01 0.01 0.01 0.01 0.02 0.02 0.03 0.03 0.03 0.03 0.03 0.02 0.02 0.03 0.02 0.02 0.02 0.01 0.01 0.01 0.01 0.01 0.01 0.01 0.01 0.01
0.02 0.01 0.01 0.01 0.01 0.01 0.01 0.01 0.01 0.00 0.01 0.01 0.01 0.01 0.01 0.01 0.01 0.02 0.01 0.01 0.01 0.01 0.02 0.02 0.02 0.03 0.03 0.04 0.04 0.03 0.03 0.03 0.02 0.02 0.02 0.02 0.01 0.01 0.02 0.01 0.01 0.01 0.01 0.01
0.01 0.01 0.01 0.01 0.01 0.01 0.01 0.01 0.01 0.01 0.01 0.01 0.01 0.01 0.01 0.01 0.01 0.01 0.01 0.01 0.01 0.01 0.01 0.02 0.02 0.02 0.03 0.03 0.03 0.03 0.03 0.03 0.02 0.02 0.02 0.02 0.02 0.01 0.02 0.02 0.02 0.02 0.02 0.01
0.01 0.01 0.01 0.01 0.01 0.01 0.01 0.01 0.01 0.01 0.01 0.01 0.01 0.02 0.02 0.02 0.01 0.01 0.01 0.01 0.01 0.01 0.01 0.02 0.02 0.02 0.02 0.02 0.02 0.03 0.03 0.03 0.02 0.02 0.02 0.03 0.03 0.02 0.02 0.03 0.03 0.03 0.03 0.02
0.01 0.01 0.01 0.01 0.01 0.01 0.01 0.01 0.01 0.01 0.02 0.02 0.02 0.03 0.03 0.02 0.02 0.02 0.02 0.01 0.01 0.01 0.01 0.01 0.01 0.01 0.01 0.02 0.02 0.03 0.03 0.03 0.02 0.02 0.02 0.03 0.03 0.03 0.03 0.03 0.03 0.03 0.02 0.02
0.01 0.01 0.01 0.01 0.01 0.01 0.01 0.02 0.02 0.02 0.02 0.02 0.02 0.03 0.03 0.03 0.03 0.02 0.02 0.02 0.02 0.02 0.01 0.01 0.01 0.01 0.01 0.01 0.02 0.02 0.03 0.03 0.02 0.02 0.02 0.02 0.03 0.03 0.03 0.03 0.03 0.03 0.02 0.02
0.01 0.01 0.01 0.01 0.01 0.01 0.01 0.01 0.01 0.01 0.02 0.02 0.02 0.02 0.03 0.03 0.03 0.02 0.02 0.02 0.02 0.02 0.02 0.02 0.01 0.01 0.01 0.01 0.02 0.02 0.02 0.03 0.03 0.02 0.02 0.03 0.03 0.03 0.03 0.03 0.03 0.02 0.02 0.02
0.01 0.01 0.01 0.01 0.01 0.01 0.01 0.01 0.01 0.01 0.01 0.02 0.02 0.02 0.02 0.02 0.02 0.02 0.02 0.02 0.01 0.01 0.01 0.01 0.02 0.01 0.01 0.01 0.02 0.02 0.02 0.02 0.02 0.02 0.02 0.02 0.02 0.03 0.03 0.03 0.02 0.02 0.02 0.02
0.01 0.01 0.01 0.01 0.01 0.01 0.01 0.01 0.01 0.01 0.01 0.01 0.01 0.02 0.02 0.02 0.02 0.02 0.02 0.02 0.01 0.01 0.01 0.01 0.01 0.01 0.01 0.01 0.02 0.02 0.02 0.02 0.02 0.02 0.02 0.02 0.02 0.02 0.02 0.02 0.02 0.02 0.02 0.01
0.00 0.00 0.00 0.00 0.00 0.00 0.00 0.01 0.01 0.01 0.01 0.01 0.01 0.01 0.02 0.02 0.02 0.02 0.02 0.02 0.02 0.02 0.01 0.01 0.01 0.01 0.01 0.01 0.01 0.02 0.02 0.02 0.02 0.02 0.02 0.02 0.02 0.02 0.02 0.02 0.02 0.02 0.02 0.02
0.00 0.00 0.00 0.00 0.00 0.00 0.00 0.00 0.00 0.01 0.01 0.01 0.01 0.01 0.01 0.02 0.02 0.02 0.02 0.02 0.02 0.02 0.01 0.01 0.01 0.01 0.01 0.01 0.01 0.02 0.02 0.02 0.02 0.02 0.02 0.02 0.02 0.02 0.02 0.02 0.02 0.01 0.01 0.01
0.00 0.00 0.00 0.00 0.00 0.00 0.00 0.00 0.00 0.00 0.01 0.01 0.01 0.01 0.01 0.02 0.02 0.02 0.02 0.02 0.02 0.02 0.02 0.01 0.01 0.01 0.01 0.01 0.01 0.01 0.01 0.02 0.01 0.01 0.02 0.02 0.02 0.02 0.01 0.01 0.01 0.01 0.01 0.01
0.00 0.00 0.00 0.00 0.00 0.00 0.00 0.00 0.00 0.00 0.01 0.01 0.01 0.01 0.01 0.01 0.02 0.02 0.02 0.02 0.02 0.02 0.01 0.01 0.02 0.01 0.01 0.01 0.01 0.01 0.01 0.01 0.01 0.01 0.02 0.02 0.01 0.01 0.01 0.01 0.01 0.01 0.01 0.01
0.00 0.00 0.00 0.00 0.00 0.00 0.00 0.01 0.01 0.01 0.01 0.01 0.01 0.01 0.01 0.01 0.01 0.01 0.01 0.02 0.02 0.02 0.01 0.01 0.01 0.02 0.02 0.02 0.01 0.01 0.01 0.01 0.02 0.02 0.01 0.02 0.01 0.01 0.01 0.01 0.01 0.01 0.01 0.01
0.00 0.00 0.00 0.00 0.00 0.00 0.01 0.01 0.01 0.01 0.01 0.01 0.01 0.01 0.01 0.01 0.01 0.01 0.01 0.01 0.01 0.01 0.01 0.01 0.01 0.02 0.02 0.02 0.01 0.01 0.01 0.02 0.02 0.02 0.02 0.01 0.01 0.01 0.01 0.01 0.01 0.01 0.01 0.01
0.00 0.00 0.00 0.00 0.00 0.01 0.01 0.01 0.01 0.01 0.01 0.01 0.01 0.01 0.01 0.01 0.01 0.01 0.01 0.01 0.01 0.01 0.01 0.01 0.01 0.01 0.01 0.01 0.01 0.01 0.01 0.01 0.02 0.02 0.02 0.02 0.02 0.01 0.01 0.01 0.01 0.01 0.01 0.01
0.00 0.00 0.00 0.00 0.00 0.00 0.01 0.01 0.01 0.01 0.01 0.01 0.01 0.01 0.01 0.01 0.01 0.01 0.01 0.01 0.01 0.01 0.01 0.01 0.01 0.01 0.01 0.01 0.01 0.01 0.01 0.01 0.01 0.02 0.02 0.02 0.02 0.02 0.01 0.01 0.01 0.01 0.01 0.01
MSLP
1022.50 1021.80 1021.03 1020.18 1019.25 1018.24 1017.18 1016.08 1014.99 1013.95 1012.99 1012.13 1011.37 1010.68 1010.01 1009.31 1008.51 1007.57 1006.46 1005.18 1003.80 1002.39 1001.05 999.90 999.04 998.54 998.44 998.76 999.43 1000.37 1001.50 1002.71 1003.93 1005.08 1006.15 1007.12 1008.03 1008.91 1009.78 1010.67 1011.59 1012.52 1013.43 1014.30
1022.58 1021.89 1021.14 1020.31 1019.42 1018.47 1017.49 1016.48 1015.49 1014.55 1013.69 1012.92 1012.23 1011.59 1010.97 1010.31 1009.54 1008.63 1007.55 1006.31 1004.95 1003.55 1002.21 1001.04 1000.12 999.54 999.34 999.53 1000.07 1000.88 1001.88 1002.99 1004.12 1005.21 1006.25 1007.21 1008.11 1008.99 1009.87 1010.78 1011.70 1012.65 1013.58 1014.46
1022.49 1021.80 1021.05 1020.26 1019.42 1018.54 1017.63 1016.72 1015.83 1014.98 1014.20 1013.49 1012.86 1012.27 1011.70 1011.07 1010.36 1009.52 1008.51 1007.36 1006.09 1004.77 1003.49 1002.34 1001.42 1000.79 1000.51 1000.58 1000.97 1001.63 1002.49 1003.47 1004.49 1005.51 1006.48 1007.41 1008.30 1009.18 1010.06 1010.96 1011.89 1012.84 1013.78 1014.68
1022.21 1021.51 1020.79 1020.04 1019.27 1018.48 1017.68 1016.88 1016.08 1015.33 1014.62 1013.97 1013.37 1012.82 1012.27 1011.69 1011.03 1010.26 1009.36 1008.32 1007.18 1005.99 1004.81 1003.73 1002.84 1002.19 1001.84 1001.81 1002.07 1002.58 1003.29 1004.13 1005.03 1005.96 1006.87 1007.76 1008.63 1009.49 1010.36 1011.26 1012.19 1013.14 1014.08 1014.98
1021.74 1021.05 1020.37 1019.70 1019.03 1018.37 1017.70 1017.03 1016.35 1015.69 1015.05 1014.45 1013.87 1013.33 1012.79 1012.24 1011.62 1010.93 1010.13 1009.22 1008.22 1007.16 1006.11 1005.13 1004.29 1003.65 1003.25 1003.14 1003.28 1003.66 1004.23 1004.94 1005.73 1006.57 1007.43 1008.28 1009.12 1009.97 1010.84 1011.72 1012.64 1013.57 1014.50 1015.40
1021.11 1020.45 1019.84 1019.28 1018.75 1018.25 1017.75 1017.23 1016.69 1016.14 1015.57 1015.00 1014.44 1013.89 1013.34 1012.79 1012.20 1011.56 1010.85 1010.06 1009.19 1008.27 1007.35 1006.47 1005.70 1005.08 1004.67 1004.49 1004.54 1004.81 1005.27 1005.88 1006.58 1007.36 1008.16 1008.99 1009.82 1010.65 1011.51 1012.38 1013.28 1014.19 1015.09 1015.97
1020.35 1019.75 1019.25 1018.83 1018.48 1018.17 1017.85 1017.51 1017.12 1016.67 1016.18 1015.64 1015.08 1014.52 1013.95 1013.38 1012.80 1012.19 1011.55 1010.85 1010.09 1009.30 1008.50 1007.73 1007.04 1006.46 1006.05 1005.84 1005.83 1006.03 1006.41 1006.94 1007.59 1008.31 1009.09 1009.90 1010.72 1011.56 1012.40 1013.26 1014.13 1015.00 1015.87 1016.72
1019.54 1019.03 1018.66 1018.41 1018.25 1018.13 1018.02 1017.85 1017.61 1017.27 1016.84 1016.33 1015.77 1015.18 1014.59 1013.99 1013.41 1012.83 1012.23 1011.61 1010.96 1010.29 1009.60 1008.93 1008.32 1007.80 1007.42 1007.20 1007.17 1007.32 1007.65 1008.14 1008.75 1009.45 1010.22 1011.02 1011.84 1012.67 1013.51 1014.34 1015.18 1016.01 1016.83 1017.62
1018.74 1018.35 1018.12 1018.05 1018.08 1018.16 1018.22 1018.21 1018.09 1017.85 1017.48 1017.00 1016.44 1015.83 1015.21 1014.60 1014.02 1013.46 1012.91 1012.37 1011.81 1011.25 1010.67 1010.11 1009.59 1009.14 1008.79 1008.60 1008.56 1008.70 1009.01 1009.47 1010.06 1010.76 1011.52 1012.32 1013.14 1013.96 1014.78 1015.58 1016.38 1017.15 1017.91 1018.64
1018.04 1017.77 1017.70 1017.79 1017.99 1018.22 1018.43 1018.54 1018.52 1018.35 1018.02 1017.57 1017.01 1016.40 1015.78 1015.17 1014.61 1014.09 1013.60 1013.14 1012.69 1012.23 1011.77 1011.32 1010.89 1010.51 1010.23 1010.06 1010.04 1010.19 1010.49 1010.94 1011.52 1012.21 1012.96 1013.76 1014.56 1015.37 1016.15 1016.92 1017.65 1018.36 1019.05 1019.70
1017.50 1017.37 1017.44 1017.66 1017.99 1018.33 1018.63 1018.82 1018.85 1018.72 1018.42 1017.98 1017.44 1016.84 1016.25 1015.68 1015.17 1014.72 1014.32 1013.96 1013.62 1013.28 1012.93 1012.59 1012.25 1011.96 1011.73 1011.61 1011.62 1011.77 1012.07 1012.51 1013.08 1013.75 1014.48 1015.25 1016.03 1016.80 1017.54 1018.25 1018.92 1019.56 1020.16 1020.74
1017.17 1017.18 1017.37 1017.69 1018.09 1018.49 1018.81 1019.02 1019.06 1018.93 1018.64 1018.22 1017.71 1017.16 1016.62 1016.13 1015.71 1015.36 1015.07 1014.83 1014.61 1014.40 1014.17 1013.93 1013.69 1013.47 1013.30 1013.22 1013.25 1013.41 1013.70 1014.13 1014.67 1015.30 1016.00 1016.73 1017.46 1018.17 1018.86 1019.50 1020.10 1020.66 1021.19 1021.68
1017.08 1017.21 1017.49 1017.88 1018.30 1018.70 1019.00 1019.18 1019.19 1019.04 1018.75 1018.34 1017.87 1017.39 1016.94 1016.56 1016.26 1016.03 1015.88 1015.77 1015.67 1015.57 1015.45 1015.31 1015.15 1015.00 1014.88 1014.83 1014.87 1015.03 1015.30 1015.70 1016.21 1016.80 1017.44 1018.11 1018.78 1019.43 1020.04 1020.61 1021.14 1021.63 1022.08 1022.50
1017.19 1017.44 1017.79 1018.21 1018.62 1018.97 1019.22 1019.32 1019.28 1019.09 1018.79 1018.40 1017.99 1017.60 1017.26 1017.00 1016.83 1016.75 1016.73 1016.75 1016.77 1016.78 1016.74 1016.67 1016.58 1016.47 1016.39 1016.35 1016.40 1016.54 1016.80 1017.17 1017.63 1018.16 1018.74 1019.35 1019.95 1020.53 1021.07 1021.57 1022.03 1022.45 1022.84 1023.20
1017.47 1017.82 1018.23 1018.65 1019.02 1019.31 1019.47 1019.50 1019.38 1019.15 1018.84 1018.48 1018.14 1017.84 1017.62 1017.49 1017.46 1017.51 1017.62 1017.75 1017.86 1017.95 1017.98 1017.96 1017.90 1017.82 1017.75 1017.72 1017.76 1017.90 1018.13 1018.46 1018.88 1019.36 1019.89 1020.43 1020.96 1021.47 1021.95 1022.38 1022.79 1023.15 1023.50 1023.82
1017.86 1018.29 1018.75 1019.16 1019.48 1019.70 1019.77 1019.72 1019.54 1019.27 1018.96 1018.64 1018.37 1018.17 1018.06 1018.06 1018.15 1018.32 1018.52 1018.73 1018.90 1019.03 1019.09 1019.09 1019.05 1018.97 1018.91 1018.88 1018.92 1019.04 1019.26 1019.56 1019.95 1020.39 1020.87 1021.36 1021.84 1022.29 1022.71 1023.10 1023.45 1023.78 1024.08 1024.38
1018.26 1018.78 1019.26 1019.67 1019.95 1020.10 1020.11 1019.99 1019.76 1019.48 1019.18 1018.91 1018.71 1018.60 1018.60 1018.70 1018.89 1019.14 1019.40 1019.65 1019.86 1019.99 1020.06 1020.05 1020.00 1019.92 1019.85 1019.82 1019.86 1019.99 1020.20 1020.49 1020.86 1021.28 1021.72 1022.17 1022.61 1023.02 1023.40 1023.74 1024.06 1024.35 1024.63 1024.90
1018.63 1019.21 1019.72 1020.12 1020.38 1020.48 1020.45 1020.29 1020.05 1019.77 1019.50 1019.28 1019.15 1019.13 1019.21 1019.39 1019.65 1019.94 1020.23 1020.49 1020.69 1020.81 1020.85 1020.83 1020.76 1020.67 1020.60 1020.58 1020.63 1020.77 1020.99 1021.29 1021.65 1022.06 1022.49 1022.91 1023.32 1023.69 1024.04 1024.34 1024.63 1024.89 1025.15 1025.40
1018.89 1019.53 1020.07 1020.47 1020.72 1020.81 1020.75 1020.59 1020.36 1020.11 1019.89 1019.73 1019.67 1019.71 1019.87 1020.10 1020.39 1020.70 1020.99 1021.24 1021.41 1021.50 1021.51 1021.46 1021.37 1021.28 1021.22 1021.21 1021.28 1021.44 1021.68 1022.00 1022.37 1022.78 1023.20 1023.60 1023.98 1024.32 1024.63 1024.90 1025.15 1025.38 1025.60 1025.82
1019.04 1019.72 1020.28 1020.70 1020.95 1021.05 1021.00 1020.86 1020.67 1020.46 1020.30 1020.21 1020.21 1020.32 1020.51 1020.78 1021.08 1021.39 1021.67 1021.88 1022.02 1022.07 1022.06 1021.99 1021.90 1021.81 1021.77 1021.78 1021.88 1022.07 1022.33 1022.67 1023.05 1023.45 1023.85 1024.24 1024.58 1024.89 1025.15 1025.38 1025.59 1025.78 1025.96 1026.14
1019.07 1019.79 1020.37 1020.81 1021.08 1021.20 1021.19 1021.09 1020.95 1020.81 1020.71 1020.68 1020.74 1020.89 1021.12 1021.40 1021.71 1022.00 1022.25 1022.44 1022.55 1022.58 1022.55 1022.47 1022.39 1022.32 1022.30 1022.34 1022.47 1022.68 1022.96 1023.30 1023.68 1024.06 1024.44 1024.79 1025.09 1025.35 1025.57 1025.75 1025.90 1026.04 1026.18 1026.31
1019.03 1019.77 1020.37 1020.83 1021.13 1021.28 1021.32 1021.27 1021.19 1021.12 1021.08 1021.11 1021.22 1021.41 1021.66 1021.95 1022.25 1022.52 1022.75 1022.92 1023.01 1023.03 1023.00 1022.94 1022.87 1022.83 1022.83 1022.91 1023.06 1023.28 1023.56 1023.89 1024.24 1024.59 1024.92 1025.21 1025.46 1025.67 1025.83 1025.95 1026.05 1026.14 1026.23 1026.32
1018.96 1019.70 1020.32 1020.80 1021.13 1021.32 1021.41 1021.42 1021.40 1021.39 1021.42 1021.50 1021.65 1021.86 1022.12 1022.41 1022.70 1022.96 1023.18 1023.33 1023.42 1023.44 1023.43 1023.39 1023.35 1023.33 1023.36 1023.45 1023.61 1023.82 1024.08 1024.38 1024.68 1024.98 1025.25 1025.48 1025.66 1025.80 1025.90 1025.98 1026.03 1026.08 1026.12 1026.18
1018.88 1019.63 1020.26 1020.75 1021.11 1021.34 1021.47 1021.54 1021.58 1021.63 1021.70 1021.82 1022.00 1022.23 1022.49 1022.77 1023.05 1023.30 1023.51 1023.66 1023.75 1023.80 1023.80 1023.79 1023.78 1023.79 1023.84 1023.93 1024.08 1024.27 1024.49 1024.73 1024.97 1025.20 1025.39 1025.55 1025.67 1025.75 1025.80 1025.83 1025.85 1025.87 1025.90 1025.93
1018.84 1019.58 1020.21 1020.71 1021.09 1021.35 1021.53 1021.64 1021.73 1021.82 1021.93 1022.08 1022.28 1022.51 1022.77 1023.04 1023.31 1023.55 1023.75 1023.90 1024.00 1024.06 1024.09 1024.10 1024.12 1024.14 1024.20 1024.29 1024.41 1024.56 1024.73 1024.90 1025.07 1025.22 1025.34 1025.44 1025.50 1025.53 1025.55 1025.55 1025.56 1025.57 1025.60 1025.63
1018.82 1019.54 1020.16 1020.66 1021.05 1021.34 1021.55 1021.70 1021.83 1021.96 1022.09 1022.26 1022.46 1022.69 1022.94 1023.20 1023.45 1023.68 1023.87 1024.02 1024.13 1024.21 1024.26 1024.29 1024.31 1024.34 1024.39 1024.46 1024.55 1024.66 1024.77 1024.88 1024.98 1025.06 1025.12 1025.16 1025.18 1025.19 1025.19 1025.19 1025.21 1025.23 1025.27 1025.32
1018.79 1019.48 1020.08 1020.57 1020.96 1021.27 1021.50 1021.69 1021.85 1022.00 1022.16 1022.34 1022.54 1022.77 1023.01 1023.25 1023.48 1023.69 1023.87 1024.02 1024.13 1024.21 1024.26 1024.30 1024.33 1024.36 1024.39 1024.44 1024.49 1024.55 1024.61 1024.66 1024.71 1024.74 1024.76 1024.77 1024.77 1024.77 1024.77 1024.79 1024.83 1024.88 1024.94 1025.02
Thickness
5438 5439 5441 5443 5446 5450 5452 5465 5479 5484 5480 5479 5476 5474 5473 5472 5472 5473 5474 5476 5478 5481 5484 5487 5490 5493 5495 5496 5498 5499 5501 5502 5503 5502 5502 5501 5501 5500 5499 5498 5497 5496 5495 5494
5432 5433 5433 5434 5439 5442 5445 5450 5458 5462 5463 5466 5465 5464 5463 5463 5463 5463 5464 5465 5467 5469 5472 5475 5478 5481 5483 5485 5487 5489 5491 5492 5491 5490 5490 5490 5490 5489 5488 5487 5486 5485 5484 5483
5440 5427 5431 5439 5434 5435 5439 5442 5449 5456 5458 5454 5453 5454 5454 5454 5453 5453 5454 5455 5456 5458 5460 5464 5467 5470 5472 5474 5476 5478 5480 5480 5480 5480 5479 5479 5478 5477 5477 5476 5476 5474 5473 5472
5426 5426 5431 5439 5422 5425 5429 5431 5433 5438 5442 5443 5443 5443 5443 5444 5444 5445 5445 5445 5447 5448 5450 5452 5455 5458 5461 5463 5465 5467 5469 5469 5469 5468 5468 5468 5467 5466 5465 5465 5464 5463 5461 5460
5416 5424 5432 5427 5415 5410 5416 5425 5425 5428 5431 5432 5431 5433 5436 5436 5434 5434 5434 5435 5436 5438 5439 5442 5445 5447 5450 5453 5454 5456 5457 5457 5457 5456 5456 5456 5456 5455 5455 5454 5452 5451 5450 5449
5405 5418 5428 5429 5405 5399 5406 5422 5420 5418 5420 5421 5423 5434 5436 5427 5424 5423 5423 5424 5425 5427 5429 5432 5434 5437 5440 5442 5444 5444 5445 5444 5444 5444 5444 5445 5444 5444 5443 5442 5440 5439 5438 5438
5399 5407 5418 5403 5391 5394 5413 5424 5408 5408 5410 5411 5415 5421 5418 5413 5412 5411 5412 5413 5414 5417 5419 5421 5423 5426 5428 5430 5432 5432 5432 5432 5432 5432 5432 5432 5432 5431 5431 5430 5429 5427 5427 5426
5390 5398 5407 5388 5387 5394 5402 5397 5397 5398 5398 5398 5400 5401 5401 5401 5401 5401 5401 5402 5404 5406 5408 5410 5412 5414 5417 5418 5419 5419 5420 5420 5420 5420 5419 5419 5419 5419 5418 5418 5417 5416 5416 5415
5383 5395 5385 5379 5382 5382 5381 5384 5387 5388 5388 5387 5388 5390 5390 5390 5390 5390 5391 5392 5393 5395 5397 5399 5400 5402 5404 5405 5406 5407 5408 5408 5408 5408 5407 5408 5408 5407 5406 5406 5406 5405 5405 5404
5367 5379 5375 5372 5372 5372 5372 5374 5376 5377 5377 5378 5379 5379 5379 5379 5380 5380 5380 5381 5382 5384 5386 5388 5389 5390 5391 5392 5393 5395 5396 5396 5396 5396 5396 5396 5395 5395 5395 5395 5395 5394 5394 5393
5364 5371 5369 5371 5368 5367 5366 5367 5368 5369 5369 5369 5369 5369 5369 5369 5369 5369 5369 5370 5371 5373 5374 5376 5377 5378 5379 5380 5381 5383 5383 5384 5384 5384 5384 5384 5383 5383 5383 5383 5384 5383 5382 5382
5378 5373 5369 5371 5366 5361 5359 5359 5360 5360 5360 5361 5360 5360 5360 5360 5359 5359 5359 5360 5361 5362 5364 5365 5366 5367 5368 5368 5369 5371 5372 5373 5373 5373 5373 5373 5373 5372 5371 5371 5371 5371 5371 5370
5364 5360 5359 5359 5356 5354 5353 5352 5352 5352 5352 5352 5351 5351 5351 5350 5350 5350 5350 5350 5351 5352 5354 5355 5356 5357 5358 5358 5359 5360 5361 5361 5362 5362 5362 5362 5363 5363 5362 5361 5360 5360 5360 5360
5351 5349 5350 5351 5350 5347 5344 5343 5343 5342 5343 5343 5342 5342 5341 5341 5341 5341 5341 5341 5341 5342 5344 5345 5346 5347 5347 5348 5349 5349 5350 5351 5351 5352 5352 5352 5352 5352 5352 5352 5352 5351 5350 5349
5344 5343 5345 5343 5340 5338 5336 5334 5333 5333 5333 5333 5333 5333 5332 5332 5332 5332 5332 5332 5332 5334 5335 5335 5336 5337 5337 5338 5338 5339 5339 5340 5341 5342 5342 5343 5343 5342 5342 5341 5341 5341 5341 5340
5338 5335 5334 5333 5332 5331 5328 5326 5326 5326 5325 5325 5325 5324 5324 5323 5323 5322 5323 5323 5324 5325 5326 5326 5327 5327 5328 5328 5328 5329 5329 5330 5331 5332 5333 5333 5333 5333 5333 5332 5332 5332 5331 5331
5331 5330 5328 5326 5326 5324 5322 5320 5318 5318 5317 5317 5317 5316 5315 5314 5314 5314 5314 5314 5315 5315 5316 5317 5317 5318 5318 5319 5319 5320 5320 5320 5321 5322 5323 5323 5323 5323 5323 5323 5322 5322 5322 5321
5329 5327 5325 5322 5320 5317 5315 5314 5312 5310 5309 5309 5308 5307 5307 5307 5307 5307 5306 5305 5306 5306 5307 5308 5308 5308 5309 5309 5309 5310 5310 5311 5312 5312 5313 5313 5313 5313 5314 5314 5314 5313 5313 5313
5320 5318 5316 5314 5312 5310 5308 5307 5305 5303 5301 5300 5300 5299 5299 5298 5298 5298 5298 5298 5299 5301 5301 5300 5300 5300 5300 5300 5300 5301 5301 5302 5303 5304 5304 5305 5305 5305 5305 5306 5306 5306 5305 5306
5312 5310 5307 5306 5303 5301 5300 5299 5297 5295 5294 5292 5291 5291 5290 5290 5290 5290 5290 5291 5293 5294 5294 5294 5293 5293 5293 5292 5293 5293 5293 5294 5295 5296 5296 5297 5298 5298 5298 5298 5298 5298 5298 5299
5305 5302 5300 5298 5296 5294 5292 5291 5289 5288 5286 5285 5284 5283 5283 5282 5282 5282 5283 5285 5286 5286 5286 5286 5286 5286 5286 5286 5286 5286 5287 5287 5288 5289 5290 5290 5291 5291 5292 5292 5292 5292 5292 5292
5298 5296 5293 5290 5288 5286 5284 5282 5281 5280 5278 5277 5275 5274 5274 5274 5274 5274 5275 5277 5278 5279 5279 5279 5280 5280 5280 5280 5280 5280 5280 5281 5281 5282 5283 5284 5285 5285 5285 5285 5285 5285 5285 5286
5292 5289 5286 5283 5281 5279 5276 5275 5273 5272 5270 5269 5268 5267 5267 5268 5268 5269 5270 5270 5270 5272 5272 5273 5273 5273 5273 5273 5273 5274 5274 5275 5275 5276 5277 5277 5278 5278 5279 5279 5279 5279 5279 5280
5285 5282 5279 5276 5272 5270 5269 5270 5267 5265 5263 5262 5261 5260 5259 5260 5260 5261 5262 5263 5264 5265 5266 5266 5266 5267 5267 5267 5267 5267 5268 5269 5269 5270 5271 5271 5272 5272 5272 5273 5273 5273 5274 5274
5278 5275 5272 5268 5267 5268 5266 5263 5260 5258 5257 5257 5256 5255 5254 5254 5255 5255 5255 5256 5257 5258 5259 5260 5260 5261 5261 5261 5261 5261 5262 5263 5263 5264 5264 5265 5265 5266 5266 5267 5267 5268 5268 5269
5272 5271 5269 5267 5265 5263 5261 5258 5257 5255 5253 5252 5251 5250 5249 5249 5248 5248 5249 5250 5250 5251 5252 5253 5253 5254 5255 5255 5255 5256 5256 5256 5257 5258 5258 5259 5259 5260 5261 5261 5262 5263 5263 5264
5265 5264 5261 5260 5258 5256 5254 5252 5251 5250 5248 5247 5246 5245 5244 5243 5243 5243 5243 5244 5244 5245 5246 5246 5247 5248 5248 5249 5249 5250 5250 5251 5251 5252 5252 5253 5253 5254 5255 5256 5257 5258 5259 5260